Regional Weather Roundup
Issued by NWS

Home | Current Version | Previous Version | Graphics & Text | Print | Product List | Glossary On
Versions: 1 2 3 4 5 6 7 8 9 10 11 12 13 14 15 16 17 18 19 20 21 22 23 24 25 26 27 28 29 30 31 32 33 34 35 36 37 38 39 40 41 42 43 44 45 46 47 48 49 50
000
ASUS43 KTOP 300359
RWRKS

WEATHER ROUNDUP FOR KANSAS
NATIONAL WEATHER SERVICE GOODLAND KS
1100 PM CDT FRI MAY 29 2015

NOTE:  "FAIR" INDICATES FEW OR NO CLOUDS BELOW 12,000 FEET WITH NO
SIGNIFICANT WEATHER AND/OR OBSTRUCTIONS TO VISIBILITY.

KSZ001>006-013>018-027>032-041>047-300500-
NORTHWEST KANSAS

CITY           SKY/WX    TMP DP  RH WIND       PRES   REMARKS
GOODLAND       CLOUDY    52  48  86 N17       30.24R
HAYS           CLOUDY    57  46  67 N25       30.14R
HILL CITY      CLOUDY    54  50  86 N16G28    30.19R
RUSSELL        CLOUDY    57  54  89 N20       30.11R
$$

KSZ061>065-074>080-084>089-300500-
SOUTHWEST KANSAS

CITY           SKY/WX    TMP DP  RH WIND       PRES   REMARKS
DODGE CITY     PTCLDY    58  53  84 N18G30    30.14R
ELKHART          N/A     60  50  69 N8          N/A
GARDEN CITY    PTCLDY    57  54  89 N15       30.18R
GREAT BEND     MOCLDY    61  54  77 N16G22    30.10R
LIBERAL        MOCLDY    61  52  72 N14       30.17R
$$

KSZ066>073-081>083-090>101-300500-
SOUTHEAST KANSAS

CITY           SKY/WX    TMP DP  RH WIND       PRES   REMARKS
CHANUTE        CLOUDY    65  64  97 CALM      29.99R
COFFEYVILLE    CLOUDY    65  64  97 CALM      29.98R
HUTCHINSON     MOCLDY    64  54  69 N15       30.04R
MEDICINE LODGE   N/A     65  55  70 N15G25    30.04R
NEWTON         MOCLDY    64  54  68 N20G26    30.05R
PARSONS        CLOUDY    66  66 100 CALM      30.00R
WICHITA INTL   MOCLDY    69  65  86 S3        29.99R
WICHITA JABRA  CLOUDY    66  64  93 CALM      30.00R
WINFIELD       CLOUDY    69  66  90 SE6       30.01R
$$

KSZ007>012-019>026-033>040-048>060-102>105-300500-
NORTHEAST KANSAS

CITY           SKY/WX    TMP DP  RH WIND       PRES   REMARKS
CONCORDIA      CLOUDY    56  53  90 N20G26    30.07R
EMPORIA        CLOUDY    65  64  97 S6        29.99R
LAWRENCE       CLOUDY    64  63  96 SE3       29.99R
MANHATTAN      CLOUDY    64  58  80 N14G25    30.03R
OLATHE IND     CLOUDY    65  64  97 S3        30.01R
OLATHE EXE     CLOUDY    65  64  97 S3        30.00R
SALINA         CLOUDY    62  56  80 N13       30.05R
TOPEKA BILLARD CLOUDY    66  65  96 CALM      29.99R
TOPEKA FORBES  CLOUDY    67  64  90 S5        29.99R
$$


USA.gov is the U.S. government's official web portal to all federal, state and local government web resources and services.